www.pogodaiklimat.ru
ПОГОДА в Йомале
Время
(UTC), дата
22 15.10
23 15.10
00 16.10
01 16.10
02 16.10
03 16.10
04 16.10
05 16.10
06 16.10
07 16.10
08 16.10
09 16.10
10 16.10
11 16.10
12 16.10
13 16.10
14 16.10
15 16.10
16 16.10
17 16.10
18 16.10
19 16.10
20 16.10
21 16.10
22 16.10
23 16.10
00 17.10
01 17.10
02 17.10
03 17.10
04 17.10
05 17.10
06 17.10
07 17.10
08 17.10
09 17.10
10 17.10
11 17.10
12 17.10
13 17.10
14 17.10
15 17.10
16 17.10
17 17.10
18 17.10
19 17.10
20 17.10
21 17.10
22 17.10
23 17.10
00 18.10
01 18.10
02 18.10
03 18.10
04 18.10
05 18.10
06 18.10
07 18.10
08 18.10
09 18.10
10 18.10
11 18.10
12 18.10
13 18.10
14 18.10
15 18.10
16 18.10
17 18.10
18 18.10
19 18.10
20 18.10
21 18.10
22 18.10
23 18.10
00 19.10
01 19.10
02 19.10
03 19.10
04 19.10
05 19.10
06 19.10
07 19.10
08 19.10
09 19.10
11 19.10
12 19.10
13 19.10
14 19.10
15 19.10
16 19.10
17 19.10
18 19.10
19 19.10
20 19.10
21 19.10
22 19.10
23 19.10
00 20.10
01 20.10
02 20.10
03 20.10
04 20.10
05 20.10
06 20.10
07 20.10
08 20.10
09 20.10
10 20.10
11 20.10
12 20.10
13 20.10
14 20.10
15 20.10
16 20.10
17 20.10
18 20.10
19 20.10
20 20.10
21 20.10
22 20.10
23 20.10
00 21.10
01 21.10
02 21.10
03 21.10
04 21.10
05 21.10
06 21.10
07 21.10
08 21.10
09 21.10
10 21.10
11 21.10
12 21.10
13 21.10
14 21.10
15 21.10
16 21.10
17 21.10
18 21.10
19 21.10
20 21.10
21 21.10
22 21.10
23 21.10
00 22.10
01 22.10
02 22.10
03 22.10
04 22.10
05 22.10
06 22.10
07 22.10
08 22.10
09 22.10
10 22.10
11 22.10
12 22.10
13 22.10
14 22.10
15 22.10
16 22.10
17 22.10
18 22.10
19 22.10
20 22.10
21 22.10
22 22.10
23 22.10
Ветер
(напр.,м/с)
Видим. Явления Облачность Т
(С)
Тd
(С)
f
(%)
Тe
(С)
Тes
(С)
Комфортность P
(гПа)
Po
(гПа)
Тmin
(С)
Tmax
(С)
R
(мм)
R24
(мм)
S
(см)
СЗ 1-3
{3}
50 км в посл. час осадки 9/9 1000 м +7.1 +4.3 82 +6 +6 1019.4 1017.8
СЗ 2-5
{5}
15 км слаб. дождь 10/10 600 м +7.0 +5.6 91 +5 +5 1019.2 1017.6 0.3
С 2-4
{4}
17 км слаб. дождь 10/10 300 м +6.7 +6.1 96 +4 +4 1019.2 1017.6 0.7
СВ 3-5
{5}
16 км слаб. дождь 10/10 200 м +6.6 +6.0 96 +3 +3 1019.1 1017.5 0.3
В 1-1
{3}
35 км в посл. час дождь 10/10 300 м +6.2 +5.7 97 +5 +5 1019.5 1017.9 0.1
СВ 1-2
{3}
50 км в посл. час снег {ливн. снег, дождь} 8/8 1500 м +5.6 +5.0 96 +4 +4 1019.7 1018.1
С 1-2
{2}
35 км 8/8 600 м +4.3 +3.8 97 +3 +3 1020.2 1018.6
-2
{2}
50 км 10/10 1380 м +5.0 +4.6 97 1020.7 1019.1
З 1-1
{2}
800 м сильная пыльная буря {ливн. дождь, дождь} 1/1 1000 м +3.3 +2.9 97 +2 +2 1021.0 1019.4 +3.3 +7.7
СЗ 1-2
{2}
30 км в посл. час туман 9/9 1000 м +5.1 +4.9 99 +4 +4 1021.7 1020.1
СЗ 1-2
{2}
40 км в посл. час дождь 3/3 600 м +6.5 +6.2 98 +5 +6 1022.1 1020.5
С 2-3
{3}
35 км в посл. час снег {ливн. снег, морось} 9/9 1000 м +8.0 +4.8 80 +6 +6 1022.5 1020.9
СВ 1-3
{4}
27 км слаб. дождь 9/9 1500 м +8.8 +5.3 79 +8 +8 1022.7 1021.1
С 2-4
{6}
27 км слаб. ливневой дождь 8/8 570 м +8.1 +6.0 87 +6 +7 1022.9 1021.3 0.4
СЗ 2-3
{6}
50 км в посл. час снег {ливн. дождь, дождь} 4/4 1000 м +8.3 +5.7 84 +6 +7 1022.8 1021.3
СЗ 2-4
{4}
35 км 9/9 300 м +8.1 +5.1 81 +6 +6 1022.7 1021.2
СЗ 1-2
{4}
50 км 3/3 1000 м +7.0 +4.7 85 +6 +6 1022.8 1021.2
СЗ 1-2
{2}
50 км {ливн. дождь, дождь} 3/3 1000 м +5.2 +3.9 91 +4 +4 1022.7 1021.2
З 1-2
{2}
50 км 9/9 600 м +3.8 +3.2 96 +2 +2 1022.8 1021.2
СЗ 2-3
{3}
50 км ясно +2.6 +2.2 97 -1 -1 1023.0 1021.4
СЗ 1-2
{2}
14 км {ливн. снег, дождь} ясно +1.5 +1.1 97 -1 -1 1023.0 1021.4 +1.4 +9.4
СЗ 1-2
{2}
1200 м туман ясно +0.9 +0.6 98 -1 -1 1022.9 1021.3
штиль 0-1
{2}
12 км ясно +0.1 -0.2 98 -1 -1 1022.7 1021.1
З 1-2
{2}
7000 м дымка ясно -0.1 -0.3 99 -2 -2 1022.6 1020.9
ЮЗ 1-1
{2}
19 км 10/10 1500 м +0.9 +0.7 99 -1 -1 1022.2 1020.5
ЮЗ 2-2
{2}
19 км ясно +0.4 +0.2 99 -3 -3 1021.5 1019.9
З 2-3
{3}
45 км {метель} 10/10 1000 м +1.9 +1.7 99 -2 -2 1021.0 1019.4
З 2-4
{4}
50 км 10/10 1000 м +4.4 +4.1 98 +1 +1 1020.2 1018.6
ЮЗ 1-3
{4}
50 км 10/10 1000 м +5.4 +5.1 98 +4 +4 1019.5 1017.9
ЮЗ 1-2
{3}
50 км 10/10 1000 м +5.5 +4.9 96 +4 +4 1018.9 1017.3
З 2-3
{3}
50 км 10/10 1000 м +5.8 +5.2 96 +3 +3 1018.2 1016.6
З 2-4
{4}
50 км 10/10 600 м +5.5 +3.6 88 +3 +3 1017.5 1016.0
ЮЗ 2-3
{5}
50 км 8/8 600 м +5.4 +3.0 85 +3 +3 1016.7 1015.2 -0.3 +6.0
ЮЗ 3-4
{4}
50 км 1/1 1000 м +6.7 +3.9 82 +4 +4 1016.1 1014.5
ЮЗ 4-7
{7}
45 км ясно +9.1 +4.8 74 +6 +7 1015.2 1013.7
ЮЗ 7-11
{11}
50 км ясно +9.3 +3.7 68 +6 +6 1014.3 1012.7
ЮЗ 7-11
{12}
45 км ясно +9.7 +4.3 69 +6 +7 1013.4 1011.8
ЮЗ 7-11
{12}
45 км ясно +10.4 +4.8 68 +7 +8 1012.2 1010.7
З 7-11
{11}
45 км ясно +10.7 +4.7 66 +7 +8 1011.2 1009.6
З 6-10
{11}
50 км 1/1 600 м +10.7 +4.7 66 +8 +8 1010.3 1008.8
З 4-7
{9}
50 км 1/1 600 м +10.0 +4.4 68 +8 +8 1009.4 1007.8
З 3-7
{8}
50 км 1/1 600 м +9.0 +4.8 75 +7 +7 1008.4 1006.8
З 3-7
{7}
50 км 9/9 600 м +8.2 +4.4 77 +6 +6 1007.8 1006.3
З 3-4
{6}
50 км 6/6 1000 м +7.2 +4.3 82 +4 +4 1006.9 1005.4
З 3-6
{7}
50 км 10/10 2000 м +8.0 +5.7 85 +5 +5 1006.1 1004.6 +5.0 +11.0
З 4-7
{8}
50 км 10/10 2000 м +8.2 +5.8 85 +5 +5 1005.3 1003.7
З 3-5
{7}
50 км 6/6 +7.0 +5.3 89 +4 +4 1004.4 1002.8
З 3-5
{6}
50 км 8/1 1500 м +6.3 +5.2 93 +3 +3 1003.3 1001.7
З 4-6
{6}
50 км 9/6 1500 м +7.3 +5.2 87 +4 +4 1002.3 1000.7
СЗ 5-8
{9}
50 км 10/10 2000 м +7.7 +0.2 59 +4 +4 1001.8 1000.2
СЗ 4-7
{10}
50 км в посл. час дождь со снегом {ливн. дождь} 9/3 1000 м +6.6 -0.6 60 +3 +3 1001.0 999.5
З 2-4
{6}
50 км ясно +4.6 -1.9 63 +2 +2 1000.1 998.6
З 3-5
{5}
50 км 1/1 1000 м +4.0 -0.9 70 +1 +1 999.3 997.7
З 4-6
{7}
50 км 9/9 1000 м +4.9 +0.5 73 +1 +1 998.5 997.0
СЗ 4-7
{7}
50 км 9/9 1000 м +5.4 0.0 68 +2 +2 997.8 996.2
З 5-8
{12}
50 км 3/3 600 м +4.7 +0.8 76 0 0 997.2 995.6
З 3-4
{10}
50 км в посл. час дождь со снегом {ливн. дождь, морось} 3/3 1260 м +3.1 +1.7 91 -1 -1 997.3 995.7 +3.1 +8.4 0.1
СЗ 4-7
{7}
24 км слаб. ливневой дождь 6/6 600 м +4.6 +1.2 79 0 +1 997.3 995.8 0.1
СЗ 6-10
{12}
45 км в посл. час морось 4/4 600 м +5.8 +0.3 68 +1 +1 997.2 995.7
СЗ 7-14
{14}
10 км сильн. ливневой дождь 6/6 600 м +2.8 +0.5 85 -3 -3 997.4 995.8
СЗ 4-10
{12}
45 км в посл. час дождь 4/4 870 м +4.8 +1.1 77 +1 +2 997.2 995.7 0.5
СЗ 7-11
{14}
40 км ливневой дождь 8/8 1320 м +4.1 +0.1 75 -2 -1 997.7 996.2
С 5-11
{13}
20 км ливневой дождь 9/9 600 м +3.6 +1.0 83 -1 -1 998.1 996.5
СЗ 7-13
{15}
45 км в посл. час морось 6/6 800 м +3.6 -1.7 68 -2 -2 998.3 996.7
СЗ 6-10
{15}
35 км ливневой дождь 9/9 300 м +2.7 +0.3 84 -3 -3 998.9 997.4 0.1
СЗ 5-10
{17}
29 км сильн. ливневой дождь 9/8 800 м +1.3 -0.3 89 -5 -5 999.4 997.8 0.5
СЗ 5-10
{14}
23 км ливневой дождь 9/8 300 м +1.6 -0.3 87 -4 -4 999.8 998.3 0.1
СЗ 5-9
{16}
50 км в посл. час снег 9/9 1000 м +2.4 -0.4 82 -3 -3 1000.1 998.6 0.3
СЗ 4-8
{15}
50 км ливневой дождь 9/9 300 м +1.8 +0.3 90 -3 -3 1000.2 998.7 +1.1 +6.5 0.3
СЗ 6-11
{11}
24 км ливневой дождь 9/9 1000 м +3.4 -2.1 67 -2 -2 999.9 998.3 0.1
СЗ 5-8
{14}
50 км слаб. ливневой дождь 10/10 1000 м +3.0 -0.9 76 -2 -2 1000.2 998.7 0.1
СЗ 7-12
{14}
30 км ливневой дождь 10/10 600 м +2.5 -0.8 79 -4 -4 1000.5 998.9 0.1
З 4-7
{13}
45 км слаб. дождь 10/10 600 м +2.0 -0.3 85 -3 -3 1000.3 998.7 0.2
СЗ 6-12
{12}
50 км в посл. час дождь 10/10 1000 м +3.7 -3.1 61 -1 -1 1000.3 998.7
СЗ 7-11
{12}
50 км {ливн. дождь, дождь} 10/10 1000 м +3.5 -3.9 58 -2 -2 1000.4 998.8
СЗ 6-13
{15}
50 км 10/10 1000 м +3.3 -3.6 61 -2 -2 1000.5 999.0
СЗ 6-11
{11}
50 км слаб. ливневой дождь 10/10 1000 м +3.4 -3.1 62 -2 -2 1000.6 999.1
СЗ 7-16
{16}
45 км слаб. ливневой снег {туман} 9/9 1000 м +3.1 -3.0 64 -3 -3 1000.9 999.4
СЗ 6-11
{15}
30 км слаб. ливневой дождь 9/9 1500 м +1.3 -0.2 90 -5 -5 1001.4 999.8 0.2
СЗ 6-10
{14}
50 км в посл. час дождь 8/8 900 м +1.4 -0.3 88 -5 -5 1001.5 1000.0 0.2
СЗ 6-12
{12}
50 км в посл. час переохл. осадки (гололёд) 4/4 600 м +2.4 -0.7 80 -3 -3 1002.1 1000.5 +1.0 +4.1 0.5 <0.5
СЗ 7-14
{16}
35 км слаб. ливневой дождь 6/6 600 м +3.2 -0.3 78 -3 -3 1002.9 1001.3
СЗ 6-12
{16}
40 км слаб. ливневой дождь 9/9 300 м +3.5 +0.6 81 -2 -2 1003.4 1001.9
СЗ 7-13
{14}
24 км ливневой дождь 9/9 300 м +3.5 +0.8 82 -2 -2 1004.4 1002.9
СЗ 7-13
{13}
28 км слаб. ливневой дождь 10/10 1470 м +4.2 +1.9 85 -2 -2 1006.1 1004.5 0.3
СЗ 8-13
{14}
35 км в посл. час дождь со снегом {ливн. дождь} 10/10 300 м +4.6 +1.7 81 -1 -1 1006.9 1005.4 0.1
СЗ 8-14
{15}
19 км слаб. ливневой дождь 9/9 600 м +4.5 +1.4 80 -1 -1 1007.8 1006.3
СЗ 7-12
{14}
15 км слаб. ливневой дождь 10/10 300 м +4.1 +2.2 87 -2 -2 1008.5 1006.9 0.5
СЗ 7-12
{12}
16 км ливневой дождь 9/9 300 м +3.8 +2.3 90 -2 -2 1009.3 1007.7 0.4
СЗ 6-10
{13}
30 км слаб. ливневой дождь 8/8 300 м +3.8 +2.3 90 -2 -2 1009.7 1008.1 0.5
СЗ 5-11
{11}
6000 м ливневой дождь 10/10 300 м +3.8 +2.7 93 -1 -1 1010.3 1008.7 1
СЗ 5-8
{13}
22 км слаб. дождь 9/9 300 м +3.4 +2.5 94 -2 -2 1011.0 1009.4 +2.4 +4.8 3
СЗ 4-7
{8}
50 км в посл. час морось 6/6 1380 м +3.1 +1.6 90 -2 -2 1011.8 1010.2
СЗ 4-6
{6}
16 км ливневой дождь 10/10 300 м +4.0 +3.3 95 -1 -1 1012.7 1011.1 1
СЗ 3-5
{10}
50 км в посл. час дождь со снегом {ливн. дождь} 9/9 1380 м +3.5 +2.7 94 -1 -1 1013.5 1012.0 0.5
СЗ 3-6
{7}
50 км в посл. час морось 6/6 720 м +3.5 +2.6 94 -1 -1 1013.7 1012.1 0.1
СЗ 3-6
{7}
50 км в посл. час дождь 8/8 1500 м +3.8 +3.0 95 -0 -0 1014.3 1012.7 0.2
СЗ 2-4
{5}
50 км в посл. час снег {ливн. снег, дождь} ясно +2.7 +2.0 95 -1 -1 1015.0 1013.4
СЗ 2-4
{5}
50 км в посл. час осадки 1/1 1000 м +2.1 +1.6 96 -1 -1 1015.6 1014.0
СЗ 2-3
{3}
27 км 1/1 600 м +1.4 +1.1 98 -2 -2 1016.3 1014.7
С 2-3
{3}
4800 м дождь {ливн. дождь} 10/10 870 м +2.1 +1.8 98 -1 -1 1016.8 1015.2 0.2
СЗ 1-1
{2}
26 км в посл. час дождь 5/5 1500 м +1.3 +1.1 99 -1 -1 1017.3 1015.7 0.1
З 1-1
{3}
21 км 8/8 1000 м +0.3 0.0 98 -2 -2 1017.7 1016.1
штиль 0-1
{2}
26 км {ливн. снег, дождь} 9/9 1000 м +0.8 +0.5 98 -1 -1 1018.0 1016.4 +0.3 +4.2 <0.5
штиль 0-1
{1}
27 км 3/3 1000 м +1.3 +1.0 98 -0 0 1018.6 1017.0
В 1-1
{1}
40 км ясно +5.4 +5.1 98 +4 +5 1018.7 1017.2
В 1-2
{3}
45 км 3/3 1500 м +5.4 +0.5 71 +4 +6 1019.2 1017.6
ЮВ 2-2
{2}
50 км 6/6 1000 м +6.0 +0.3 67 +4 +5 1019.3 1017.7
ЮВ 2-3
{3}
50 км 8/8 1000 м +6.0 +0.2 66 +4 +4 1018.9 1017.3
ЮВ 2-3
{4}
50 км 4/4 1170 м +6.0 +0.6 68 +4 +5 1018.6 1017.0
ЮВ 3-5
{5}
50 км 4/4 1500 м +6.0 +1.1 71 +3 +4 1018.1 1016.5
ЮВ 4-5
{5}
24 км слаб. дождь 9/9 600 м +5.4 +1.9 78 +2 +2 1017.6 1016.0 0.1
ЮВ 3-4
{7}
30 км слаб. дождь 10/10 300 м +4.7 +2.8 87 +1 +1 1017.2 1015.6 0.6
Ю 3-4
{6}
14 км слаб. дождь 10/10 300 м +4.5 +3.2 91 +1 +1 1016.7 1015.1 0.8
ЮВ 4-6
{6}
23 км слаб. дождь 10/10 600 м +4.6 +3.1 90 0 0 1015.6 1014.0 0.7
ЮВ 5-6
{7}
25 км слаб. дождь 10/10 300 м +4.9 +3.7 92 0 0 1014.8 1013.2 +0.8 +6.2 0.6
ЮВ 4-7
{7}
14 км сильн. морось 10/10 600 м +5.3 +4.0 91 +1 +1 1013.8 1012.2 0.8
ЮВ 5-7
{7}
10 км дождь 10/10 300 м +5.8 +4.8 93 +1 +1 1012.8 1011.2 2
ЮВ 5-8
{8}
11 км слаб. дождь {морось} 10/10 300 м +6.5 +5.6 94 +2 +2 1011.8 1010.3 2
Ю 5-8
{8}
14 км дождь 10/10 300 м +7.1 +6.3 95 +3 +3 1010.6 1009.0 2
Ю 5-8
{10}
21 км слаб. дождь 10/10 660 м +7.5 +6.5 93 +3 +3 1009.9 1008.3 0.9
ЮВ 5-7
{8}
13 км слаб. дождь {морось} 10/10 600 м +7.6 +6.5 93 +4 +4 1008.9 1007.3 0.9
ЮЗ 3-6
{7}
4900 м дождь 10/10 200 м +7.4 +6.8 96 +4 +4 1008.2 1006.7 3
Ю 2-2
{4}
10 км слаб. дождь 10/10 1000 м +6.7 +6.2 97 +4 +4 1007.2 1005.7 2
ЮВ 1-2
{2}
7000 м морось {дождь} 10/10 600 м +7.0 +6.5 97 +6 +6 1006.3 1004.8 0.4
ЮВ 4-5
{5}
5000 м слаб. дождь 10/10 200 м +7.9 +7.4 97 +4 +4 1005.6 1004.0 0.5
Ю 6-9
{9}
14 км морось 10/10 420 м +8.9 +8.3 96 +5 +5 1004.7 1003.2 0.6
Ю 6-9
{12}
16 км в посл. час дождь со снегом {ливн. дождь} 10/10 200 м +9.2 +8.4 95 +5 +5 1004.4 1002.9 +4.9 +9.2 0.4
Ю 5-7
{10}
11 км 9/9 200 м +9.7 +9.0 95 +6 +6 1004.3 1002.7
Ю 4-5
{7}
9000 м дымка 9/8 1380 м +10.1 +9.3 95 +7 +7 1004.4 1002.9
Ю 5-7
{7}
8000 м ливневой дождь 9/9 200 м +10.4 +9.1 92 +7 +7 1004.4 1002.8
ЮЗ 5-7
{7}
9000 м в посл. час морось 9/9 200 м +10.6 +9.3 92 +8 +8 1004.1 1002.5
ЮЗ 4-7
{9}
8000 м дымка 9/9 200 м +10.6 +9.4 92 +8 +8 1004.0 1002.5
ЮЗ 4-6
{7}
16 км {ливн. дождь, дождь} 9/9 1500 м +10.5 +7.9 84 +8 +8 1004.2 1002.6
ЮЗ 5-7
{7}
23 км 6/4 300 м +10.7 +7.2 79 +8 +8 1004.0 1002.5
ЮЗ 4-6
{7}
20 км 8/1 600 м +10.0 +7.6 85 +7 +7 1004.3 1002.8
Ю 3-4
{6}
14 км 5/5 600 м +8.7 +7.2 90 +6 +6 1003.6 1002.1
Ю 2-4
{4}
12 км 9/9 1110 м +9.4 +8.1 92 +8 +8 1003.8 1002.3
Ю 4-5
{6}
11 км 10/10 600 м +9.7 +8.5 92 +7 +7 1003.5 1002.0
ЮЗ 4-6
{6}
11 км 10/10 660 м +9.8 +8.8 93 +7 +7 1003.1 1001.6 +8.4 +11.0
ЮЗ 3-4
{6}
9000 м в посл. час морось 10/10 540 м +9.7 +9.1 96 +7 +7 1002.7 1001.1
Ю 3-5
{5}
5000 м дымка 10/10 100 м +9.8 +9.3 97 +7 +7 1002.5 1000.9
ЮЗ 3-5
{5}
7000 м дымка {ливн. дождь, дождь} 10/10 100 м +10.0 +9.5 97 +8 +8 1002.0 1000.5
Ю 3-4
{5}
1700 м слаб. ливневой дождь 10/10 50 м +10.0 +9.6 97 +8 +8 1001.6 1000.1 0.1
Ю 2-4
{4}
1200 м морось 10/10 50 м +10.1 +9.8 98 +8 +8 1001.0 999.5 0.1
Ю 3-5
{5}
1200 м ливневой дождь 10/10 50 м +10.4 +10.1 98 +8 +8 1000.0 998.5 0.2
Ю 2-4
{5}
2700 м слаб. дождь 10/10 50 м +10.4 +10.2 99 +9 +9 998.8 997.3 0.1
ЮВ 3-5
{5}
3000 м слаб. морось 10/10 50 м +10.5 +10.2 98 +8 +8 997.6 996.1 0.1
ЮВ 3-4
{5}
3800 м слаб. дождь 10/10 50 м +10.5 +10.2 98 +8 +8 996.2 994.7 0.2
ЮВ 4-5
{6}
5000 м слаб. дождь 10/10 50 м +10.6 +10.4 99 +8 +8 994.8 993.3 1
ЮВ 4-7
{7}
3900 м слаб. дождь 10/10 50 м +11.1 +10.8 98 +9 +9 993.3 991.8 2
ЮВ 3-5
{7}
15 км слаб. дождь 10/10 100 м +10.9 +10.6 98 +9 +9 992.4 990.8 +9.6 +11.1 1
ЮВ 3-5
{6}
13 км морось 10/10 100 м +10.6 +10.1 97 +8 +8 991.7 990.2 0.8
ЮВ 3-4
{5}
8000 м дождь 10/10 100 м +10.7 +10.3 97 +9 +9 991.0 989.5 2
ЮВ 2-3
{4}
10 км слаб. дождь {морось} 10/10 50 м +11.1 +10.7 97 +10 +10 990.5 989.0 2
В 1-2
{3}
5000 м морось 10/10 50 м +11.3 +11.0 98 +11 +11 990.2 988.7 0.3
СЗ 2-4
{4}
5000 м дождь 10/10 50 м +11.3 +11.0 98 +10 +10 990.5 989.0 0.6
СЗ 3-6
{6}
25 км морось {дождь} 10/10 480 м +11.2 +10.9 98 +9 +9 991.3 989.8 0.6
СЗ 4-7
{7}
45 км в посл. час морось 10/10 100 м +10.8 +10.4 97 +8 +8 992.5 990.9
СЗ 4-7
{9}
35 км 10/10 100 м +10.6 +10.1 97 +8 +8 993.6 992.1
СЗ 4-7
{9}
3900 м дымка 10/10 50 м +9.7 +9.3 97 +7 +7 995.3 993.8
СЗ 5-7
{8}
8000 м дымка 10/10 50 м +9.5 +9.1 97 +6 +6 996.4 994.8
З 4-6
{7}
4200 м дымка 10/10 50 м +9.0 +8.7 98 +6 +6 997.0 995.5
З 4-6
{6}
3800 м дымка 10/10 50 м +8.5 +8.3 99 +5 +5 997.2 995.7 +8.5 +11.5
Ю 2-2
{5}
24 км слаб. дождь 10/10 50 м +8.5 +8.2 98 +6 +6 996.9 995.4
Ю 3-4
{4}
3900 м ливневой дождь 10/10 100 м +8.8 +8.5 98 +6 +6 996.3 994.8 0.9
ЮЗ 4-7
{7}
20 км морось {ливн. дождь, дождь} 9/9 100 м +10.4 +10.1 98 +8 +8 995.6 994.1 1
ЮЗ 5-7
{9}
3600 м сильн. дождь 10/10 100 м +10.7 +10.3 97 +8 +8 994.9 993.4 2
ЮЗ 5-8
{8}
35 км слаб. ливневой дождь 10/10 100 м +11.1 +10.7 97 +8 +8 994.3 992.8 1
Местоположение метеостанции Йомала (Финляндия): широта 60.18 долгота 19.99 высота над уровнем моря 11 м.
В архиве по умолчанию представлена погода в Йомале за последнюю неделю. Архивные данные за месяц целиком и за предыдущие месяцы, начиная с января 2011 года, Вы можете получить, выбрав интересующий диапазон дат из раскрывающегося списка и нажав кнопку "Найти!".
*Определитесь, кто Вы:
Внимание! Время в таблицах - всемирное. Для получения местного времени необходимо прибавить поправку, которая равна 1 ч.
Смотрите также архив погоды в соседних городах и на ближайших метеорологических станциях:
Партнеры нашего сайта:      
Пояснения к столбцам:
  • Ветер - указаны скорость ветра в м/с - средняя за 10 мин, порывы в срок и между сроками (в фигурных скобках) и направление, откуда дует ветер: С - северный,
  • СВ - северо-восточный, В - восточный, ЮВ - юго-восточный, Ю - южный, ЮЗ - юго-западный, З - западный, СЗ - северо-западный.
  • Видимость - горизонтальная дальность видимости в метрах или километрах. При видимости от 1 до 10 км при отсутствии осадков обычно наблюдается дымка, при ухудшении видимости до 1 км и менее - туман. В сухую погоду видимость может ухудшаться дымом, пылью или мглою.
  • Явления - указаны атмосферные явления, наблюдавшиеся в срок или в последний час перед сроком; фигурными скобками обозначены явления, наблюдавшиеся между сроками (за 1-3 часа до срока); квадратными скобками обозначены град или гололедные отложения с указанием их диаметра в мм.
  • Облачность - указаны через наклонную черту общая и нижняя облачность в баллах и высота нижней границы облаков в метрах; квадратными скобками обозначены формы облаков: Ci - перистые, Cs - перисто-слоистые, Cc - перисто-кучевые, Ac - высококучевые, As - высокослоистые, Sc - слоисто-кучевые, Ns - слоисто-дождевые, Cu - кучевые, Cb - кучево-дождевые. Подробнее классификацию облаков см. в Атласе облаков (PDF).
  • T - Температура воздуха - температура, измеренная на высоте 2 м над землей.
  • Td - Температура точки росы - температура, при понижении до которой содержащийся в воздухе водяной пар достигнет насыщения.
  • f - Относительная влажность воздуха - влажноcть воздуха, измеренная на высоте 2 м над землей.
  • Te - Эффективная температура - температура, которую ощущает одетый по сезону человек в тени. Характеристика душности погоды. При расчете учитывается влияние влажности воздуха и скорости ветра на теплоощущения человека.
  • Tes - Эффективная температура на солнце - температура, которую ощущает человек, с поправкой на солнечный нагрев. Характеристика знойности погоды. Зависит от высоты солнца над горизонтом, облачности и скорости ветра. Ночью, в пасмурную погоду, а также при ветре 12 м/с и более поправка равна нулю.
  • P - Атмосферное давление - приведенное к уровню моря атмосферное давление.
  • Po - Атмосферное давление - измеренное на уровне метеостанции атмосферное давление.
  • Tmin - Минимальная температура - минимум температуры воздуха на высоте 2 м над землей.
  • Tmax - Максимальная температура - максимум температуры воздуха на высоте 2 м над землей.
  • R - Количество осадков - Количество выпавших осадков за период времени, мм. При наведении курсора мыши на число - период времени, за который выпало указанное количество осадков.
  • R24 - Количество осадков - Количество выпавших осадков за 24 часа, мм.
  • S - Снежный покров - Высота снежного покрова, см. При наведении курсора мыши на число - состояние снежного покрова и степень покрытия местности в баллах.